Becker, MN (55308)

7:36 PM CST on February 11, 2016 (GMT -0600)
Eagle Lake | | Change Station
CLOSE
Current Station
Personal Weather Station
Location: Big Lake, MN
Elevation: 961 ft
Nearby Weather Stations

Elev 961 ft 45.39 °N, 93.75 °W | Updated 14 minutes ago

Snow
Snow
13.5 °F
Feels Like 14 °F
N
1.7
Wind Variable Wind from South

Today
High -- | Low -- °F
--% Chance of Precip.
Yesterday
High -- | Low -- °F
Precip. -- in
Pressure 30.24 in
Visibility 4.0 miles
Clouds Scattered Clouds 1600 ft
Mostly Cloudy 2600 ft
Overcast 3100 ft
Windchill 14 °F
Dew Point 12 °F
Humidity 95%
Rainfall 0.00 in
Snow Depth Not available.
7:23 AM 5:36 PM
Waxing Crescent, 16% visible
METAR KMGG 120117Z AUTO 00000KT 4SM -SN SCT016 BKN026 OVC031 M09/M12 A3024 RMK AO2 T10951117
Pressure 30.24 in
Visibility 4.0 miles
Clouds Scattered Clouds 1600 ft
Mostly Cloudy 2600 ft
Overcast 3100 ft
Windchill 14 °F
Dew Point 12 °F
Humidity 95%
Rainfall 0.00 in
Snow Depth Not available.
7:23 AM 5:36 PM
Waxing Crescent, 16% visible
METAR KMGG 120117Z AUTO 00000KT 4SM -SN SCT016 BKN026 OVC031 M09/M12 A3024 RMK AO2 T10951117

10-Day Weather Forecast

Almanac

Astronomy

Feb. 11, 2016 Rise Set
Actual Time
Civil Twilight
Nautical Twilight
Astronomical Twilight
Moon
Length of Visible Light
Length of Day
Tomorrow will be .
, % of the Moon is Illuminated

Today's Extremes

State Highs State Lows

Community

WunderPhotos

Upload Photos

1,892,207 photos uploaded!

WunderBlog® & News

Nearby

Air Quality

  Air Quality AQ Index Pollutant
Not available.

Snow Depth

Station Depth Elevation

Earthquake Activity

City Distance Mag. Time & Date
Minimum magnitude displayed is 2.5.

Coastal Water Temperatures

Place Temperature

Stations

Nearby Weather Stations

Station Location Temp. Windchill Dew Point Humidity Wind Precip. Elev Updated Type
                   

Watches & Warnings

There are currently no watches in effect.